Location: Newark
(7.0858°N, 171.3717°E)
Time: 11:05:15
(UTC+00:00)

A-11 Canister half - Visible Passes

Search period start: 20 June 2021 00:00
Search period end: 30 June 2021 00:00
Orbit: 1513 x 1686 km, 47.2° (Epoch: 19 June)

Date Brightness Start Highest point End Pass type
(mag) Time Alt. Az. Time Alt. Az. Time Alt. Az.
20 Jun 9.6 14:51:35 50° N 14:51:35 50° N 14:58:50 10° NNE visible
20 Jun 10.8 16:50:36 10° WNW 16:54:54 13° NW 16:59:11 10° NNW visible
21 Jun 9.9 14:29:51 42° NNE 14:29:51 42° NNE 14:35:58 10° NNE visible
21 Jun 10.7 16:28:02 12° WNW 16:31:49 15° NW 16:36:53 10° N visible
22 Jun 10.2 14:08:03 35° NNE 14:08:03 35° NNE 14:13:04 10° NE visible
22 Jun 10.7 16:06:14 15° WNW 16:08:45 16° NW 16:14:27 10° N visible
23 Jun 10.5 13:46:12 28° NE 13:46:12 28° NE 13:50:10 10° NE visible
23 Jun 10.6 15:44:23 18° NW 15:45:41 18° NW 15:51:57 10° N visible
24 Jun 10.7 13:24:18 23° NE 13:24:18 23° NE 13:27:14 10° NE visible
24 Jun 10.6 15:22:29 20° NW 15:22:37 20° NW 15:29:23 10° N visible
25 Jun 10.9 13:02:22 18° NE 13:02:22 18° NE 13:04:17 10° NE visible
25 Jun 10.6 15:00:32 21° NW 15:00:32 21° NW 15:06:47 10° N visible
26 Jun 11.1 12:40:22 14° NE 12:40:22 14° NE 12:41:19 10° NE visible
26 Jun 10.6 14:38:32 22° NNW 14:38:32 22° NNW 14:44:08 10° N visible
27 Jun 11.3 12:18:18 10° NE 12:18:18 10° NE 12:18:21 10° NE visible
27 Jun 10.6 14:16:28 23° NNW 14:16:28 23° NNW 14:21:27 10° N visible
28 Jun 10.7 13:54:21 22° NNW 13:54:21 22° NNW 13:58:45 10° N visible
29 Jun 10.8 13:32:10 22° N 13:32:10 22° N 13:36:01 10° NNE visible
